Terminal Aerodrome Forecast
Issued by NWS Missoula, MT

Home | Current Version | Previous Version | Text Only | Print | Product List | Glossary On
Versions: 1 2 3 4 5 6 7 8 9 10 11 12 13 14 15 16 17
000
FTUS45 KMSO 280538
TAFBTM
TAF
KBTM 280538Z 2806/2906 22005KT 6SM -SN OVC045
     FM280900 24005KT 4SM -SN BR SCT008 OVC025
      TEMPO 2809/2812 2SM -SN BR BKN015=

USA.gov is the U.S. government's official web portal to all federal, state and local government web resources and services.